Preview of NWS' New Version of Forecast
This preview is not operational and should not be used for support decisions.

Regional Weather Roundup (RWR)

Issued by National Weather Service (NWS)

                            
000
ASUS43 KTOP 200008
RWRKS 

WEATHER ROUNDUP FOR KANSAS
NATIONAL WEATHER SERVICE GOODLAND KS
700 PM CDT FRI APR 19 2019

NOTE:  "FAIR" INDICATES FEW OR NO CLOUDS BELOW 12,000 FEET WITH NO
SIGNIFICANT WEATHER AND/OR OBSTRUCTIONS TO VISIBILITY.

KSZ001>006-013>018-027>032-041>047-200100-
NORTHWEST KANSAS
  
CITY           SKY/WX    TMP DP  RH WIND       PRES   REMARKS
GOODLAND       SUNNY     73  35  25 NW6       29.98F                  
6HR MIN TEMP:  63; 6HR MAX TEMP:  74;                                

HAYS           SUNNY     66  32  28 CALM      30.01F                  
HILL CITY      SUNNY     69  31  24 SE6       29.99F                  
6HR MIN TEMP:  60; 6HR MAX TEMP:  70;                                

RUSSELL        SUNNY     66  30  26 N6        30.00F                  
6HR MIN TEMP:  60; 6HR MAX TEMP:  66;                                

$$

KSZ061>065-074>080-084>089-200100-
SOUTHWEST KANSAS
  
CITY           SKY/WX    TMP DP  RH WIND       PRES   REMARKS
DODGE CITY     SUNNY     69  30  23 NW5       30.03F                  
6HR MIN TEMP:  61; 6HR MAX TEMP:  69;                                

ELKHART        SUNNY     75  37  25 CALM      30.03F                  
GARDEN CITY    SUNNY     69  29  22 CALM      30.01F                  
6HR MIN TEMP:  60; 6HR MAX TEMP:  70;                                

GREAT BEND     SUNNY     64  38  38 NW6       30.03F                  
LIBERAL        SUNNY     72  32  23 VRB3      30.04F                  
PRATT          SUNNY     65  27  24 NW7       30.04S                  
6HR MIN TEMP:  59; 6HR MAX TEMP:  67;                                

$$

KSZ066>073-081>083-090>101-200100-
SOUTHEAST KANSAS
  
CITY           SKY/WX    TMP DP  RH WIND       PRES   REMARKS
CHANUTE        SUNNY     64  34  32 N10       29.99S                  
6HR MIN TEMP:  61; 6HR MAX TEMP:  66;                                

COFFEYVILLE    SUNNY     63  33  32 N14       29.98S                  
6HR MIN TEMP:  60; 6HR MAX TEMP:  65;                                

HUTCHINSON     SUNNY     65  29  25 N9        30.02S                  
6HR MIN TEMP:  61; 6HR MAX TEMP:  67;                                

MEDICINE LODGE   N/A     67  31  26 N10G20    30.02F                  
NEWTON         SUNNY     62  30  29 NW13      30.03S                  
PARSONS        SUNNY     63  34  33 N10G21    29.99S                  
6HR MIN TEMP:  59; 6HR MAX TEMP:  65;                                

WICHITA INTL   MOSUNNY   65  27  23 N8        30.02S                  
6HR MIN TEMP:  61; 6HR MAX TEMP:  67;                                

WICHITA JABRA  SUNNY     63  30  28 N12       30.02S                  
6HR MIN TEMP:  60; 6HR MAX TEMP:  66;                                

WICHITA MCCONL SUNNY     63  29  27 N10       30.01S                  
WINFIELD       SUNNY     63  35  35 N9        30.03S                  
6HR MIN TEMP:  60; 6HR MAX TEMP:  65;                                

$$

KSZ007>012-019>026-033>040-048>060-102>105-200100-
NORTHEAST KANSAS
  
CITY           SKY/WX    TMP DP  RH WIND       PRES   REMARKS
CONCORDIA      SUNNY     66  29  24 W7        30.00F                  
6HR MIN TEMP:  61; 6HR MAX TEMP:  68;                                

EMPORIA        SUNNY     63  29  27 N10G21    29.99S                  
6HR MIN TEMP:  59; 6HR MAX TEMP:  66;                                

LAWRENCE       SUNNY     64  30  27 N14       29.98S                  
6HR MIN TEMP:  61; 6HR MAX TEMP:  66;                                

MANHATTAN      SUNNY     65  28  24 N6        30.00S                  
6HR MIN TEMP:  61; 6HR MAX TEMP:  67;                                

MARYSVILLE     SUNNY     63  28  27 N3        29.99F                  
OLATHE IND     SUNNY     60  32  34 N16G23    29.98S                  
6HR MIN TEMP:  57; 6HR MAX TEMP:  62;                                

OLATHE EXE     SUNNY     61  29  29 N10       29.97R                  
6HR MIN TEMP:  57; 6HR MAX TEMP:  62;                                

SALINA         SUNNY     65  29  25 NW6       30.02S                  
6HR MIN TEMP:  59; 6HR MAX TEMP:  66;                                

TOPEKA BILLARD SUNNY     63  30  28 N8        29.98S                  
6HR MIN TEMP:  61; 6HR MAX TEMP:  66;                                

TOPEKA FORBES  SUNNY     63  29  27 N10       29.98S                  
6HR MIN TEMP:  60; 6HR MAX TEMP:  66;                                

$$